When you browse on this site, cookies collect data to enhance your experience and personalize the content and advertising you see.
Visit our Privacy Policy to learn more. By continuing to use the site, you agree to this use of cookies and data.
  • In Sweden
  • List of Countries
  • For 7 days
  • Water Temperature
  • Satellite Maps
  • Weather Map
  • Weather Widgets
  • user-avatar
    Login

    Hourly Weather Kurow

    Today, 27 May, Monday

    Time Temperature Precipitation Wind Pressure Humidity
    00:00 +14°C° 0 mm 3 mps 743 mmHg 85%
    01:00 +14°C° 0 mm 3 mps 742 mmHg 87%
    02:00 +13°C° 0 mm 3 mps 742 mmHg 88%
    03:00 +13°C° 0 mm 3 mps 742 mmHg 89%
    04:00 +12°C° 0 mm 3 mps 742 mmHg 90%
    05:00 +14°C° 0 mm 4 mps 742 mmHg 85%
    06:00 +17°C° 0 mm 4 mps 742 mmHg 80%
    07:00 +17°C° 0 mm 5 mps 742 mmHg 74%
    08:00 +20°C° 0 mm 5 mps 742 mmHg 68%
    09:00 +22°C° 0 mm 5 mps 742 mmHg 61%
    10:00 +23°C° 0 mm 5 mps 742 mmHg 54%
    11:00 +25°C° 0.1 mm 4 mps 741 mmHg 54%
    12:00 +25°C° 0.1 mm 4 mps 741 mmHg 54%
    13:00 +25°C° 0.1 mm 4 mps 741 mmHg 53%
    14:00 +25°C° 0.6 mm 3 mps 740 mmHg 56%
    15:00 +25°C° 0.6 mm 3 mps 740 mmHg 58%
    16:00 +25°C° 0.6 mm 3 mps 740 mmHg 61%
    17:00 +24°C° 0.1 mm 3 mps 740 mmHg 66%
    18:00 +23°C° 0.1 mm 2 mps 739 mmHg 71%
    19:00 +22°C° 0.1 mm 1 mps 739 mmHg 76%
    20:00 +20°C° 0.6 mm 2 mps 739 mmHg 80%
    21:00 +19°C° 0.6 mm 2 mps 739 mmHg 84%
    22:00 +18°C° 0.6 mm 2 mps 739 mmHg 88%
    23:00 +17°C° 0.6 mm 3 mps 738 mmHg 90%

    Tomorrow, 28 May, Tuesday

    Time Temperature Precipitation Wind Pressure Humidity
    00:00 +17°C° 0.6 mm 3 mps 738 mmHg 92%
    01:00 +17°C° 0.6 mm 4 mps 738 mmHg 94%
    02:00 +17°C° 1.5 mm 4 mps 737 mmHg 93%
    03:00 +15°C° 1.5 mm 4 mps 737 mmHg 92%
    04:00 +15°C° 1.5 mm 5 mps 737 mmHg 91%
    05:00 +16°C° 0 mm 5 mps 737 mmHg 87%
    06:00 +16°C° 0 mm 6 mps 736 mmHg 84%
    07:00 +17°C° 0 mm 7 mps 736 mmHg 80%
    08:00 +17°C° 0 mm 6 mps 736 mmHg 78%
    09:00 +19°C° 0 mm 6 mps 736 mmHg 77%
    10:00 +19°C° 0 mm 6 mps 736 mmHg 75%
    11:00 +20°C° 0.2 mm 5 mps 736 mmHg 72%
    12:00 +21°C° 0.2 mm 5 mps 736 mmHg 69%
    13:00 +22°C° 0.2 mm 5 mps 736 mmHg 66%
    14:00 +21°C° 1.1 mm 4 mps 736 mmHg 70%
    15:00 +21°C° 1.1 mm 4 mps 736 mmHg 74%
    16:00 +20°C° 1.1 mm 3 mps 737 mmHg 78%
    17:00 +17°C° 1 mm 5 mps 737 mmHg 83%
    18:00 +16°C° 1 mm 6 mps 737 mmHg 88%
    19:00 +14°C° 1 mm 7 mps 738 mmHg 93%
    20:00 +12°C° 0.6 mm 7 mps 738 mmHg 93%
    21:00 +12°C° 0.6 mm 7 mps 739 mmHg 93%
    22:00 +11°C° 0.6 mm 7 mps 740 mmHg 93%
    23:00 +11°C° 0.5 mm 7 mps 740 mmHg 93%

    Day after tomorrow, 29 May, Wednesday

    Time Temperature Precipitation Wind Pressure Humidity
    00:00 +10°C° 0.5 mm 6 mps 741 mmHg 92%
    01:00 +10°C° 0.5 mm 6 mps 741 mmHg 92%
    02:00 +9°C° 0.1 mm 6 mps 742 mmHg 90%
    03:00 +8°C° 0.1 mm 6 mps 742 mmHg 89%
    04:00 +7°C° 0.1 mm 5 mps 743 mmHg 87%
    05:00 +8°C° 0 mm 5 mps 743 mmHg 86%
    06:00 +8°C° 0 mm 5 mps 744 mmHg 84%
    07:00 +8°C° 0 mm 5 mps 745 mmHg 82%
    08:00 +10°C° 0 mm 5 mps 745 mmHg 76%
    09:00 +12°C° 0 mm 5 mps 746 mmHg 71%
    10:00 +14°C° 0 mm 5 mps 746 mmHg 65%
    11:00 +14°C° 0 mm 5 mps 746 mmHg 63%
    12:00 +15°C° 0 mm 5 mps 746 mmHg 62%
    13:00 +16°C° 0 mm 5 mps 746 mmHg 60%
    14:00 +17°C° 0 mm 4 mps 746 mmHg 60%
    15:00 +17°C° 0 mm 4 mps 746 mmHg 61%
    16:00 +17°C° 0 mm 4 mps 746 mmHg 61%
    17:00 +15°C° 0 mm 4 mps 746 mmHg 66%
    18:00 +14°C° 0 mm 3 mps 747 mmHg 71%
    19:00 +13°C° 0 mm 3 mps 747 mmHg 76%
    20:00 +12°C° 0 mm 3 mps 747 mmHg 77%
    21:00 +12°C° 0 mm 2 mps 748 mmHg 78%
    22:00 +10°C° 0 mm 2 mps 748 mmHg 79%
    23:00 +10°C° 0 mm 2 mps 748 mmHg 80%

    30 May, Thursday

    Time Temperature Precipitation Wind Pressure Humidity
    00:00 +10°C° 0 mm 2 mps 748 mmHg 81%
    01:00 +9°C° 0 mm 2 mps 748 mmHg 82%
    02:00 +9°C° 0 mm 2 mps 748 mmHg 83%
    03:00 +8°C° 0 mm 2 mps 749 mmHg 83%
    04:00 +8°C° 0 mm 2 mps 749 mmHg 83%
    05:00 +9°C° 0 mm 2 mps 749 mmHg 78%
    06:00 +10°C° 0 mm 2 mps 749 mmHg 73%
    07:00 +13°C° 0 mm 2 mps 750 mmHg 68%
    08:00 +14°C° 0 mm 2 mps 750 mmHg 63%
    09:00 +15°C° 0 mm 2 mps 750 mmHg 59%
    10:00 +16°C° 0 mm 2 mps 750 mmHg 55%
    11:00 +17°C° 0 mm 2 mps 749 mmHg 53%
    12:00 +19°C° 0 mm 1 mps 749 mmHg 51%
    13:00 +20°C° 0 mm 1 mps 749 mmHg 49%
    14:00 +20°C° 0 mm 1 mps 749 mmHg 49%
    15:00 +20°C° 0 mm 1 mps 749 mmHg 48%
    16:00 +21°C° 0 mm 1 mps 748 mmHg 48%
    17:00 +19°C° 0 mm 1 mps 748 mmHg 53%
    18:00 +18°C° 0 mm 1 mps 749 mmHg 59%
    19:00 +16°C° 0 mm 2 mps 749 mmHg 65%
    20:00 +15°C° 0 mm 2 mps 749 mmHg 64%
    21:00 +14°C° 0 mm 2 mps 749 mmHg 64%
    22:00 +13°C° 0 mm 2 mps 749 mmHg 64%
    23:00 +12°C° 0 mm 2 mps 749 mmHg 65%

    31 May, Friday

    Time Temperature Precipitation Wind Pressure Humidity
    00:00 +12°C° 0 mm 2 mps 749 mmHg 66%
    01:00 +10°C° 0 mm 2 mps 748 mmHg 67%
    02:00 +10°C° 0 mm 2 mps 748 mmHg 70%
    03:00 +10°C° 0 mm 2 mps 748 mmHg 73%
    04:00 +10°C° 0 mm 2 mps 748 mmHg 77%
    05:00 +13°C° 0 mm 2 mps 748 mmHg 75%
    06:00 +14°C° 0 mm 2 mps 748 mmHg 74%
    07:00 +16°C° 0 mm 2 mps 748 mmHg 73%
    08:00 +17°C° 0 mm 2 mps 747 mmHg 69%
    09:00 +19°C° 0 mm 2 mps 747 mmHg 65%
    10:00 +22°C° 0 mm 1 mps 747 mmHg 61%
    11:00 +22°C° 0 mm 1 mps 746 mmHg 60%
    12:00 +23°C° 0 mm 1 mps 746 mmHg 58%
    13:00 +24°C° 0 mm 1 mps 746 mmHg 56%
    14:00 +23°C° 0.8 mm 2 mps 746 mmHg 62%
    15:00 +22°C° 0.8 mm 3 mps 745 mmHg 68%
    16:00 +21°C° 0.8 mm 4 mps 745 mmHg 74%
    17:00 +20°C° 0.7 mm 4 mps 746 mmHg 79%
    18:00 +19°C° 0.7 mm 4 mps 746 mmHg 84%
    19:00 +18°C° 0.7 mm 4 mps 746 mmHg 89%
    20:00 +16°C° 0.5 mm 5 mps 746 mmHg 90%
    21:00 +15°C° 0.5 mm 5 mps 747 mmHg 92%
    22:00 +15°C° 0.5 mm 6 mps 747 mmHg 93%
    23:00 +14°C° 0.3 mm 6 mps 747 mmHg 93%

    1 June, Saturday

    Time Temperature Precipitation Wind Pressure Humidity
    00:00 +12°C° 0.3 mm 7 mps 748 mmHg 92%
    01:00 +11°C° 0.3 mm 7 mps 748 mmHg 92%
    02:00 +10°C° 0.2 mm 7 mps 748 mmHg 92%
    03:00 +10°C° 0.2 mm 6 mps 749 mmHg 92%
    04:00 +9°C° 0.2 mm 6 mps 749 mmHg 92%
    05:00 +9°C° 0.1 mm 6 mps 749 mmHg 92%
    06:00 +9°C° 0.1 mm 7 mps 750 mmHg 91%
    07:00 +9°C° 0.1 mm 7 mps 750 mmHg 91%
    08:00 +9°C° 0 mm 6 mps 751 mmHg 87%
    09:00 +10°C° 0 mm 6 mps 751 mmHg 82%
    10:00 +11°C° 0 mm 6 mps 751 mmHg 78%
    11:00 +12°C° 0 mm 7 mps 751 mmHg 70%
    12:00 +15°C° 0 mm 7 mps 751 mmHg 62%
    13:00 +16°C° 0 mm 8 mps 751 mmHg 54%
    14:00 +17°C° 0 mm 7 mps 751 mmHg 55%
    15:00 +17°C° 0 mm 7 mps 751 mmHg 55%
    16:00 +17°C° 0 mm 7 mps 751 mmHg 55%
    17:00 +16°C° 0 mm 6 mps 752 mmHg 59%
    18:00 +15°C° 0 mm 5 mps 752 mmHg 64%
    19:00 +13°C° 0 mm 4 mps 752 mmHg 68%
    20:00 +12°C° 0 mm 4 mps 752 mmHg 65%
    21:00 +10°C° 0 mm 4 mps 753 mmHg 62%
    22:00 +8°C° 0 mm 4 mps 753 mmHg 59%
    23:00 +7°C° 0 mm 4 mps 753 mmHg 59%
    Show more